LOCATION_NAME,SAMPLE COLLECTION TIME,DOSE EQUIVALENT RATE (nSv/h),GAMMA COUNT RATE R02 (CPM),GAMMA COUNT RATE R03 (CPM),GAMMA COUNT RATE R04 (CPM),GAMMA COUNT RATE R05 (CPM),GAMMA COUNT RATE R06 (CPM),GAMMA COUNT RATE R07 (CPM),GAMMA COUNT RATE R08 (CPM),GAMMA COUNT RATE R09 (CPM),STATUS
VA: VIRGINIA BEACH,01/01/2014 00:59:00,,2771.00,1499.00,400.00,196.00,120.00,139.00,80.00,34.00,APPROVED
VA: VIRGINIA BEACH,01/01/2014 01:59:00,,2809.00,1521.00,399.00,198.00,119.00,136.00,81.00,35.00,APPROVED
VA: VIRGINIA BEACH,01/01/2014 02:59:00,,2852.00,1550.00,401.00,196.00,123.00,140.00,79.00,36.00,APPROVED
VA: VIRGINIA BEACH,01/01/2014 03:59:00,,2854.00,1558.00,404.00,197.00,125.00,140.00,82.00,35.00,APPROVED
VA: VIRGINIA BEACH,01/01/2014 05:00:00,,2861.00,1559.00,408.00,199.00,122.00,143.00,82.00,36.00,APPROVED
VA: VIRGINIA BEACH,01/01/2014 06:00:00,,2857.00,1562.00,407.00,200.00,121.00,138.00,84.00,36.00,APPROVED
VA: VIRGINIA BEACH,01/01/2014 07:00:00,,2870.00,1563.00,409.00,206.00,124.00,137.00,85.00,37.00,APPROVED
VA: VIRGINIA BEACH,01/01/2014 08:00:00,,2869.00,1587.00,411.00,208.00,126.00,140.00,86.00,35.00,APPROVED
VA: VIRGINIA BEACH,01/01/2014 09:00:00,,2884.00,1603.00,416.00,211.00,126.00,145.00,84.00,38.00,APPROVED
VA: VIRGINIA BEACH,01/01/2014 10:01:00,,2895.00,1608.00,416.00,214.00,127.00,145.00,87.00,36.00,APPROVED
VA: VIRGINIA BEACH,01/01/2014 11:01:00,,2917.00,1620.00,424.00,215.00,126.00,148.00,87.00,37.00,APPROVED
VA: VIRGINIA BEACH,01/01/2014 12:01:00,,2902.00,1625.00,427.00,217.00,125.00,148.00,87.00,35.00,APPROVED
VA: VIRGINIA BEACH,01/01/2014 13:01:00,,2881.00,1602.00,422.00,213.00,129.00,143.00,85.00,36.00,APPROVED
VA: VIRGINIA BEACH,01/01/2014 14:01:00,,2852.00,1599.00,413.00,213.00,125.00,143.00,84.00,36.00,APPROVED
VA: VIRGINIA BEACH,01/01/2014 15:02:00,,2810.00,1557.00,411.00,204.00,123.00,144.00,81.00,36.00,APPROVED
VA: VIRGINIA BEACH,01/01/2014 16:02:00,,2698.00,1484.00,401.00,199.00,121.00,139.00,80.00,35.00,APPROVED
VA: VIRGINIA BEACH,01/01/2014 17:02:00,,2602.00,1415.00,397.00,190.00,120.00,140.00,77.00,35.00,APPROVED
VA: VIRGINIA BEACH,01/01/2014 18:02:00,,2556.00,1397.00,393.00,191.00,122.00,143.00,73.00,35.00,APPROVED
VA: VIRGINIA BEACH,01/01/2014 19:02:00,,2529.00,1392.00,395.00,185.00,124.00,143.00,75.00,37.00,APPROVED
VA: VIRGINIA BEACH,01/01/2014 20:03:00,,2507.00,1372.00,388.00,189.00,121.00,141.00,73.00,36.00,APPROVED
VA: VIRGINIA BEACH,01/01/2014 21:03:00,,2540.00,1381.00,391.00,185.00,121.00,141.00,75.00,36.00,APPROVED
VA: VIRGINIA BEACH,01/01/2014 22:03:00,,2605.00,1411.00,387.00,184.00,120.00,135.00,74.00,37.00,APPROVED
VA: VIRGINIA BEACH,01/01/2014 23:03:00,,2689.00,1449.00,394.00,190.00,121.00,139.00,77.00,36.00,APPROVED
VA: VIRGINIA BEACH,01/02/2014 00:03:00,,2753.00,1496.00,402.00,190.00,120.00,140.00,78.00,35.00,APPROVED
VA: VIRGINIA BEACH,01/02/2014 01:04:00,,2787.00,1510.00,402.00,202.00,120.00,139.00,81.00,35.00,APPROVED
VA: VIRGINIA BEACH,01/02/2014 02:04:00,,2785.00,1518.00,405.00,195.00,122.00,139.00,80.00,37.00,APPROVED
VA: VIRGINIA BEACH,01/02/2014 03:04:00,,2767.00,1518.00,406.00,198.00,123.00,141.00,80.00,36.00,APPROVED
VA: VIRGINIA BEACH,01/02/2014 04:04:00,,2740.00,1500.00,406.00,197.00,121.00,140.00,78.00,36.00,APPROVED
VA: VIRGINIA BEACH,01/02/2014 05:04:00,,2737.00,1495.00,401.00,196.00,120.00,138.00,78.00,35.00,APPROVED
VA: VIRGINIA BEACH,01/02/2014 06:05:00,,2728.00,1500.00,405.00,199.00,124.00,143.00,79.00,36.00,APPROVED
VA: VIRGINIA BEACH,01/02/2014 07:05:00,,2702.00,1481.00,400.00,195.00,120.00,141.00,80.00,36.00,APPROVED
VA: VIRGINIA BEACH,01/02/2014 08:05:00,,2704.00,1472.00,402.00,194.00,122.00,141.00,78.00,35.00,APPROVED
VA: VIRGINIA BEACH,01/02/2014 09:05:00,,2699.00,1460.00,398.00,194.00,123.00,142.00,79.00,35.00,APPROVED
VA: VIRGINIA BEACH,01/02/2014 10:05:00,,2695.00,1461.00,401.00,194.00,120.00,140.00,80.00,35.00,APPROVED
VA: VIRGINIA BEACH,01/02/2014 11:05:00,,2719.00,1470.00,398.00,197.00,122.00,143.00,77.00,37.00,APPROVED
VA: VIRGINIA BEACH,01/02/2014 12:06:00,,2726.00,1481.00,400.00,197.00,122.00,142.00,80.00,36.00,APPROVED
VA: VIRGINIA BEACH,01/02/2014 13:06:00,,2725.00,1487.00,403.00,195.00,121.00,142.00,78.00,36.00,APPROVED
VA: VIRGINIA BEACH,01/02/2014 14:06:00,,2693.00,1482.00,402.00,193.00,126.00,144.00,80.00,35.00,APPROVED
VA: VIRGINIA BEACH,01/02/2014 15:06:00,,2673.00,1472.00,402.00,198.00,122.00,142.00,78.00,36.00,APPROVED
VA: VIRGINIA BEACH,01/02/2014 16:06:00,,2652.00,1452.00,401.00,192.00,120.00,145.00,75.00,36.00,APPROVED
VA: VIRGINIA BEACH,01/02/2014 17:07:00,,2646.00,1444.00,397.00,195.00,121.00,143.00,76.00,36.00,APPROVED
VA: VIRGINIA BEACH,01/02/2014 18:07:00,,2624.00,1438.00,396.00,191.00,122.00,140.00,75.00,36.00,APPROVED
VA: VIRGINIA BEACH,01/02/2014 19:07:00,,2622.00,1425.00,398.00,189.00,120.00,138.00,75.00,36.00,APPROVED
VA: VIRGINIA BEACH,01/02/2014 20:07:00,,2624.00,1433.00,401.00,193.00,122.00,139.00,76.00,35.00,APPROVED
VA: VIRGINIA BEACH,01/02/2014 21:08:00,,2618.00,1426.00,392.00,190.00,120.00,139.00,77.00,35.00,APPROVED
VA: VIRGINIA BEACH,01/02/2014 22:27:00,,2678.00,1432.00,390.00,185.00,122.00,139.00,78.00,35.00,APPROVED
VA: VIRGINIA BEACH,01/02/2014 23:27:00,,2819.00,1587.00,422.00,212.00,130.00,150.00,83.00,35.00,APPROVED
VA: VIRGINIA BEACH,01/03/2014 00:27:00,,2979.00,1720.00,464.00,240.00,142.00,171.00,90.00,39.00,APPROVED
VA: VIRGINIA BEACH,01/03/2014 01:28:00,,3070.00,1810.00,484.00,262.00,144.00,176.00,93.00,40.00,APPROVED
VA: VIRGINIA BEACH,01/03/2014 02:28:00,,3033.00,1773.00,482.00,253.00,140.00,178.00,94.00,40.00,APPROVED
VA: VIRGINIA BEACH,01/03/2014 03:28:00,,3043.00,1781.00,476.00,257.00,140.00,177.00,94.00,40.00,APPROVED
VA: VIRGINIA BEACH,01/03/2014 04:28:00,,3223.00,1936.00,521.00,282.00,150.00,191.00,101.00,42.00,APPROVED
VA: VIRGINIA BEACH,01/03/2014 05:28:00,,3216.00,1915.00,512.00,278.00,151.00,188.00,100.00,40.00,APPROVED
VA: VIRGINIA BEACH,01/03/2014 06:29:00,,3273.00,1954.00,516.00,285.00,153.00,190.00,103.00,42.00,APPROVED
VA: VIRGINIA BEACH,01/03/2014 07:29:00,,3272.00,1945.00,516.00,286.00,152.00,190.00,103.00,42.00,APPROVED
VA: VIRGINIA BEACH,01/03/2014 08:29:00,,3015.00,1709.00,447.00,241.00,133.00,161.00,90.00,38.00,APPROVED
VA: VIRGINIA BEACH,01/03/2014 09:29:00,,2914.00,1615.00,421.00,216.00,125.00,146.00,86.00,36.00,APPROVED
VA: VIRGINIA BEACH,01/03/2014 10:29:00,,2962.00,1666.00,434.00,228.00,131.00,152.00,90.00,38.00,APPROVED
VA: VIRGINIA BEACH,01/03/2014 11:30:00,,2975.00,1679.00,435.00,235.00,131.00,154.00,92.00,38.00,APPROVED
VA: VIRGINIA BEACH,01/03/2014 12:30:00,,2937.00,1637.00,425.00,221.00,127.00,146.00,88.00,37.00,APPROVED
VA: VIRGINIA BEACH,01/03/2014 13:30:00,,2912.00,1591.00,405.00,205.00,121.00,141.00,85.00,35.00,APPROVED
VA: VIRGINIA BEACH,01/03/2014 14:30:00,,2873.00,1574.00,399.00,198.00,124.00,138.00,84.00,36.00,APPROVED
VA: VIRGINIA BEACH,01/03/2014 15:30:00,,2854.00,1540.00,396.00,196.00,117.00,134.00,84.00,35.00,APPROVED
VA: VIRGINIA BEACH,01/03/2014 16:31:00,,2810.00,1521.00,393.00,192.00,118.00,131.00,80.00,35.00,APPROVED
VA: VIRGINIA BEACH,01/03/2014 17:31:00,,2799.00,1518.00,393.00,188.00,117.00,131.00,80.00,34.00,APPROVED
VA: VIRGINIA BEACH,01/03/2014 18:31:00,,2783.00,1496.00,383.00,186.00,116.00,130.00,78.00,35.00,APPROVED
VA: VIRGINIA BEACH,01/03/2014 19:31:00,,2763.00,1489.00,389.00,188.00,117.00,128.00,77.00,35.00,APPROVED
VA: VIRGINIA BEACH,01/03/2014 20:31:00,,2766.00,1483.00,389.00,185.00,115.00,131.00,78.00,34.00,APPROVED
VA: VIRGINIA BEACH,01/03/2014 21:32:00,,2770.00,1494.00,388.00,186.00,113.00,130.00,78.00,34.00,APPROVED
VA: VIRGINIA BEACH,01/03/2014 22:32:00,,2805.00,1518.00,388.00,190.00,120.00,132.00,79.00,35.00,APPROVED
VA: VIRGINIA BEACH,01/03/2014 23:32:00,,2823.00,1526.00,394.00,188.00,116.00,130.00,81.00,34.00,APPROVED
VA: VIRGINIA BEACH,01/04/2014 00:32:00,,2831.00,1527.00,395.00,190.00,116.00,130.00,80.00,35.00,APPROVED
VA: VIRGINIA BEACH,01/04/2014 01:32:00,,2855.00,1539.00,389.00,189.00,115.00,131.00,82.00,35.00,APPROVED
VA: VIRGINIA BEACH,01/04/2014 02:33:00,,2868.00,1540.00,396.00,192.00,116.00,129.00,81.00,34.00,APPROVED
VA: VIRGINIA BEACH,01/04/2014 03:33:00,,2851.00,1537.00,393.00,188.00,117.00,132.00,83.00,34.00,APPROVED
VA: VIRGINIA BEACH,01/04/2014 04:33:00,,2858.00,1534.00,400.00,193.00,114.00,130.00,80.00,34.00,APPROVED
VA: VIRGINIA BEACH,01/04/2014 05:33:00,,2862.00,1548.00,401.00,189.00,119.00,133.00,81.00,35.00,APPROVED
VA: VIRGINIA BEACH,01/04/2014 06:33:00,,2868.00,1534.00,392.00,191.00,117.00,132.00,81.00,35.00,APPROVED
VA: VIRGINIA BEACH,01/04/2014 07:34:00,,2858.00,1545.00,390.00,190.00,115.00,135.00,80.00,36.00,APPROVED
VA: VIRGINIA BEACH,01/04/2014 08:34:00,,2855.00,1545.00,397.00,191.00,116.00,133.00,81.00,35.00,APPROVED
VA: VIRGINIA BEACH,01/04/2014 09:34:00,,2859.00,1539.00,400.00,191.00,118.00,133.00,78.00,34.00,APPROVED
VA: VIRGINIA BEACH,01/04/2014 10:34:00,,2869.00,1553.00,397.00,193.00,116.00,133.00,81.00,35.00,APPROVED
VA: VIRGINIA BEACH,01/04/2014 11:34:00,,2865.00,1551.00,397.00,190.00,118.00,132.00,82.00,35.00,APPROVED
VA: VIRGINIA BEACH,01/04/2014 12:35:00,,2872.00,1564.00,399.00,190.00,122.00,131.00,83.00,34.00,APPROVED
VA: VIRGINIA BEACH,01/04/2014 13:35:00,,2885.00,1553.00,400.00,194.00,119.00,134.00,82.00,35.00,APPROVED
VA: VIRGINIA BEACH,01/04/2014 14:35:00,,2833.00,1532.00,398.00,193.00,118.00,131.00,80.00,34.00,APPROVED
VA: VIRGINIA BEACH,01/04/2014 15:35:00,,2774.00,1487.00,387.00,186.00,119.00,132.00,77.00,34.00,APPROVED
VA: VIRGINIA BEACH,01/04/2014 16:35:00,,2670.00,1441.00,383.00,182.00,116.00,133.00,77.00,34.00,APPROVED
VA: VIRGINIA BEACH,01/04/2014 17:36:00,,2628.00,1400.00,379.00,180.00,115.00,131.00,75.00,35.00,APPROVED
VA: VIRGINIA BEACH,01/04/2014 18:36:00,,2615.00,1401.00,379.00,179.00,116.00,131.00,76.00,35.00,APPROVED
VA: VIRGINIA BEACH,01/04/2014 19:36:00,,2629.00,1413.00,375.00,180.00,116.00,132.00,76.00,33.00,APPROVED
VA: VIRGINIA BEACH,01/04/2014 20:36:00,,2650.00,1415.00,379.00,183.00,117.00,134.00,74.00,34.00,APPROVED
VA: VIRGINIA BEACH,01/04/2014 21:36:00,,2663.00,1425.00,379.00,183.00,116.00,133.00,74.00,35.00,APPROVED
VA: VIRGINIA BEACH,01/04/2014 22:37:00,,2721.00,1465.00,389.00,184.00,116.00,131.00,76.00,34.00,APPROVED
VA: VIRGINIA BEACH,01/04/2014 23:37:00,,2784.00,1493.00,390.00,186.00,116.00,130.00,78.00,33.00,APPROVED
VA: VIRGINIA BEACH,01/05/2014 00:37:00,,2790.00,1503.00,390.00,189.00,116.00,132.00,77.00,35.00,APPROVED
VA: VIRGINIA BEACH,01/05/2014 01:37:00,,2791.00,1504.00,388.00,187.00,116.00,134.00,78.00,34.00,APPROVED
VA: VIRGINIA BEACH,01/05/2014 02:37:00,,2810.00,1498.00,391.00,185.00,116.00,130.00,78.00,34.00,APPROVED
VA: VIRGINIA BEACH,01/05/2014 03:38:00,,2796.00,1501.00,388.00,187.00,116.00,130.00,79.00,36.00,APPROVED
VA: VIRGINIA BEACH,01/05/2014 04:38:00,,2798.00,1493.00,389.00,188.00,119.00,132.00,78.00,35.00,APPROVED
VA: VIRGINIA BEACH,01/05/2014 05:38:00,,2796.00,1507.00,393.00,187.00,117.00,134.00,80.00,35.00,APPROVED
VA: VIRGINIA BEACH,01/05/2014 06:38:00,,2793.00,1500.00,394.00,191.00,118.00,133.00,78.00,34.00,APPROVED
VA: VIRGINIA BEACH,01/05/2014 07:38:00,,2802.00,1508.00,395.00,189.00,116.00,134.00,79.00,34.00,APPROVED
VA: VIRGINIA BEACH,01/05/2014 08:39:00,,2805.00,1507.00,394.00,188.00,115.00,135.00,77.00,36.00,APPROVED
VA: VIRGINIA BEACH,01/05/2014 09:39:00,,2800.00,1500.00,392.00,190.00,119.00,134.00,79.00,35.00,APPROVED
VA: VIRGINIA BEACH,01/05/2014 10:39:00,,2775.00,1485.00,391.00,186.00,119.00,131.00,78.00,33.00,APPROVED
VA: VIRGINIA BEACH,01/05/2014 11:39:00,,2754.00,1482.00,390.00,189.00,117.00,133.00,76.00,34.00,APPROVED
VA: VIRGINIA BEACH,01/05/2014 12:39:00,,2742.00,1468.00,390.00,182.00,118.00,132.00,77.00,35.00,APPROVED
VA: VIRGINIA BEACH,01/05/2014 13:40:00,,2726.00,1459.00,390.00,183.00,116.00,133.00,76.00,33.00,APPROVED
VA: VIRGINIA BEACH,01/05/2014 14:40:00,,2703.00,1445.00,388.00,183.00,118.00,135.00,76.00,35.00,APPROVED
VA: VIRGINIA BEACH,01/05/2014 15:40:00,,2600.00,1388.00,380.00,177.00,115.00,135.00,73.00,35.00,APPROVED
VA: VIRGINIA BEACH,01/05/2014 16:40:00,,2405.00,1299.00,369.00,173.00,114.00,133.00,72.00,34.00,APPROVED
VA: VIRGINIA BEACH,01/05/2014 17:40:00,,2362.00,1279.00,366.00,172.00,116.00,130.00,76.00,35.00,APPROVED
VA: VIRGINIA BEACH,01/05/2014 18:41:00,,2347.00,1276.00,369.00,173.00,116.00,133.00,74.00,34.00,APPROVED
VA: VIRGINIA BEACH,01/05/2014 19:41:00,,2347.00,1274.00,366.00,173.00,118.00,132.00,76.00,34.00,APPROVED
VA: VIRGINIA BEACH,01/05/2014 20:41:00,,2305.00,1243.00,365.00,173.00,114.00,131.00,77.00,34.00,APPROVED
VA: VIRGINIA BEACH,01/05/2014 21:41:00,,2355.00,1266.00,370.00,178.00,117.00,131.00,76.00,35.00,APPROVED
VA: VIRGINIA BEACH,01/05/2014 22:41:00,,2442.00,1323.00,377.00,182.00,118.00,137.00,76.00,34.00,APPROVED
VA: VIRGINIA BEACH,01/05/2014 23:42:00,,2459.00,1347.00,383.00,186.00,117.00,139.00,76.00,36.00,APPROVED
VA: VIRGINIA BEACH,01/06/2014 00:42:00,,2442.00,1335.00,383.00,182.00,118.00,136.00,78.00,34.00,APPROVED
VA: VIRGINIA BEACH,01/06/2014 01:42:00,,2399.00,1297.00,373.00,179.00,117.00,134.00,75.00,35.00,APPROVED
VA: VIRGINIA BEACH,01/06/2014 02:42:00,,2368.00,1293.00,371.00,178.00,115.00,132.00,76.00,34.00,APPROVED
VA: VIRGINIA BEACH,01/06/2014 03:42:00,,2384.00,1294.00,375.00,174.00,116.00,131.00,76.00,35.00,APPROVED
VA: VIRGINIA BEACH,01/06/2014 04:43:00,,2381.00,1306.00,375.00,175.00,117.00,133.00,75.00,36.00,APPROVED
VA: VIRGINIA BEACH,01/06/2014 05:43:00,,2386.00,1291.00,374.00,175.00,117.00,130.00,77.00,35.00,APPROVED
VA: VIRGINIA BEACH,01/06/2014 06:43:00,,2374.00,1291.00,365.00,178.00,115.00,134.00,77.00,34.00,APPROVED
VA: VIRGINIA BEACH,01/06/2014 07:43:00,,2365.00,1278.00,368.00,178.00,116.00,132.00,73.00,35.00,APPROVED
VA: VIRGINIA BEACH,01/06/2014 08:43:00,,2357.00,1279.00,373.00,176.00,115.00,133.00,76.00,34.00,APPROVED
VA: VIRGINIA BEACH,01/06/2014 09:44:00,,2382.00,1294.00,375.00,177.00,118.00,132.00,75.00,35.00,APPROVED
VA: VIRGINIA BEACH,01/06/2014 10:44:00,,2400.00,1309.00,377.00,177.00,115.00,133.00,78.00,34.00,APPROVED
VA: VIRGINIA BEACH,01/06/2014 11:44:00,,2380.00,1304.00,374.00,179.00,115.00,134.00,77.00,33.00,APPROVED
VA: VIRGINIA BEACH,01/06/2014 12:44:00,,2374.00,1299.00,371.00,177.00,114.00,132.00,76.00,35.00,APPROVED
VA: VIRGINIA BEACH,01/06/2014 13:44:00,,2357.00,1293.00,372.00,180.00,117.00,133.00,79.00,35.00,APPROVED
VA: VIRGINIA BEACH,01/06/2014 14:45:00,,2310.00,1266.00,371.00,178.00,115.00,132.00,77.00,35.00,APPROVED
VA: VIRGINIA BEACH,01/06/2014 15:45:00,,2373.00,1317.00,381.00,186.00,117.00,139.00,79.00,35.00,APPROVED
VA: VIRGINIA BEACH,01/06/2014 16:45:00,,2922.00,1722.00,475.00,250.00,142.00,173.00,94.00,40.00,APPROVED
VA: VIRGINIA BEACH,01/06/2014 17:45:00,,2902.00,1659.00,450.00,234.00,136.00,163.00,89.00,38.00,APPROVED
VA: VIRGINIA BEACH,01/06/2014 18:45:00,,3215.00,1932.00,516.00,285.00,150.00,191.00,102.00,41.00,APPROVED
VA: VIRGINIA BEACH,01/06/2014 19:46:00,,3129.00,1843.00,493.00,268.00,148.00,179.00,96.00,40.00,APPROVED
VA: VIRGINIA BEACH,01/06/2014 20:46:00,,2897.00,1648.00,439.00,226.00,132.00,157.00,88.00,37.00,APPROVED
VA: VIRGINIA BEACH,01/06/2014 21:46:00,,2784.00,1560.00,422.00,211.00,127.00,152.00,83.00,37.00,APPROVED
VA: VIRGINIA BEACH,01/06/2014 22:46:00,,2791.00,1541.00,414.00,205.00,123.00,148.00,81.00,36.00,APPROVED
VA: VIRGINIA BEACH,01/06/2014 23:46:00,,2837.00,1567.00,411.00,205.00,124.00,146.00,84.00,36.00,APPROVED
VA: VIRGINIA BEACH,01/07/2014 00:47:00,,2871.00,1582.00,411.00,205.00,123.00,145.00,83.00,36.00,APPROVED
VA: VIRGINIA BEACH,01/07/2014 01:47:00,,2910.00,1601.00,417.00,205.00,124.00,143.00,82.00,36.00,APPROVED
VA: VIRGINIA BEACH,01/07/2014 02:47:00,,2911.00,1593.00,411.00,204.00,122.00,143.00,86.00,37.00,APPROVED
VA: VIRGINIA BEACH,01/07/2014 03:47:00,,2920.00,1611.00,418.00,205.00,124.00,139.00,84.00,36.00,APPROVED
VA: VIRGINIA BEACH,01/07/2014 04:47:00,,2957.00,1628.00,416.00,209.00,125.00,141.00,85.00,35.00,APPROVED
VA: VIRGINIA BEACH,01/07/2014 05:48:00,,2973.00,1643.00,417.00,209.00,122.00,141.00,86.00,36.00,APPROVED
VA: VIRGINIA BEACH,01/07/2014 06:48:00,,2975.00,1645.00,418.00,209.00,120.00,139.00,86.00,37.00,APPROVED
VA: VIRGINIA BEACH,01/07/2014 07:48:00,,2972.00,1631.00,416.00,208.00,120.00,140.00,87.00,36.00,APPROVED
VA: VIRGINIA BEACH,01/07/2014 08:48:00,,2967.00,1638.00,416.00,201.00,120.00,140.00,86.00,36.00,APPROVED
VA: VIRGINIA BEACH,01/07/2014 09:48:00,,2965.00,1627.00,413.00,203.00,124.00,137.00,84.00,37.00,APPROVED
VA: VIRGINIA BEACH,01/07/2014 10:49:00,,2966.00,1630.00,417.00,209.00,124.00,140.00,88.00,36.00,APPROVED
VA: VIRGINIA BEACH,01/07/2014 11:49:00,,2977.00,1622.00,412.00,201.00,122.00,139.00,86.00,36.00,APPROVED
VA: VIRGINIA BEACH,01/07/2014 12:49:00,,2994.00,1616.00,408.00,204.00,120.00,139.00,87.00,37.00,APPROVED
VA: VIRGINIA BEACH,01/07/2014 13:49:00,,2991.00,1602.00,407.00,202.00,120.00,138.00,82.00,35.00,APPROVED
VA: VIRGINIA BEACH,01/07/2014 14:49:00,,2944.00,1608.00,408.00,206.00,121.00,139.00,86.00,36.00,APPROVED
VA: VIRGINIA BEACH,01/07/2014 15:50:00,,2918.00,1602.00,411.00,209.00,122.00,141.00,86.00,37.00,APPROVED
VA: VIRGINIA BEACH,01/07/2014 16:50:00,,2905.00,1616.00,414.00,206.00,120.00,138.00,86.00,37.00,APPROVED
VA: VIRGINIA BEACH,01/07/2014 17:50:00,,2915.00,1614.00,412.00,207.00,121.00,140.00,87.00,36.00,APPROVED
VA: VIRGINIA BEACH,01/07/2014 18:48:00,,2914.00,1604.00,407.00,206.00,122.00,141.00,86.00,36.00,APPROVED
VA: VIRGINIA BEACH,01/07/2014 19:54:00,,2891.00,1578.00,399.00,201.00,118.00,137.00,84.00,35.00,APPROVED
VA: VIRGINIA BEACH,01/07/2014 20:55:00,,2868.00,1574.00,402.00,195.00,120.00,135.00,85.00,36.00,APPROVED
VA: VIRGINIA BEACH,01/07/2014 21:55:00,,2886.00,1567.00,401.00,198.00,122.00,138.00,84.00,36.00,APPROVED
VA: VIRGINIA BEACH,01/07/2014 22:55:00,,2899.00,1587.00,404.00,200.00,120.00,139.00,86.00,36.00,APPROVED
VA: VIRGINIA BEACH,01/07/2014 23:55:00,,2925.00,1591.00,407.00,202.00,122.00,139.00,87.00,36.00,APPROVED
VA: VIRGINIA BEACH,01/08/2014 00:55:00,,2910.00,1603.00,410.00,201.00,119.00,139.00,84.00,36.00,APPROVED
VA: VIRGINIA BEACH,01/08/2014 01:56:00,,2928.00,1598.00,406.00,203.00,119.00,141.00,85.00,35.00,APPROVED
VA: VIRGINIA BEACH,01/08/2014 02:56:00,,2928.00,1593.00,406.00,202.00,121.00,140.00,83.00,35.00,APPROVED
VA: VIRGINIA BEACH,01/08/2014 03:56:00,,2917.00,1598.00,406.00,203.00,120.00,136.00,84.00,34.00,APPROVED
VA: VIRGINIA BEACH,01/08/2014 04:56:00,,2938.00,1594.00,405.00,201.00,119.00,138.00,84.00,35.00,APPROVED
VA: VIRGINIA BEACH,01/08/2014 05:56:00,,2930.00,1598.00,410.00,198.00,123.00,136.00,84.00,35.00,APPROVED
VA: VIRGINIA BEACH,01/08/2014 06:57:00,,2930.00,1601.00,404.00,203.00,122.00,136.00,84.00,35.00,APPROVED
VA: VIRGINIA BEACH,01/08/2014 07:57:00,,2934.00,1601.00,413.00,203.00,122.00,137.00,85.00,37.00,APPROVED
VA: VIRGINIA BEACH,01/08/2014 08:57:00,,2948.00,1592.00,414.00,204.00,124.00,138.00,85.00,35.00,APPROVED
VA: VIRGINIA BEACH,01/08/2014 09:57:00,,2945.00,1606.00,412.00,202.00,123.00,140.00,86.00,36.00,APPROVED
VA: VIRGINIA BEACH,01/08/2014 10:57:00,,2942.00,1607.00,404.00,205.00,121.00,138.00,83.00,36.00,APPROVED
VA: VIRGINIA BEACH,01/08/2014 11:58:00,,2951.00,1600.00,411.00,201.00,126.00,137.00,85.00,35.00,APPROVED
VA: VIRGINIA BEACH,01/08/2014 12:58:00,,2946.00,1611.00,414.00,205.00,122.00,138.00,86.00,37.00,APPROVED
VA: VIRGINIA BEACH,01/08/2014 13:58:00,,2916.00,1599.00,409.00,202.00,122.00,138.00,86.00,36.00,APPROVED
VA: VIRGINIA BEACH,01/08/2014 14:58:00,,2864.00,1555.00,399.00,199.00,120.00,137.00,83.00,35.00,APPROVED
VA: VIRGINIA BEACH,01/08/2014 15:58:00,,2761.00,1510.00,392.00,195.00,120.00,135.00,82.00,34.00,APPROVED
VA: VIRGINIA BEACH,01/08/2014 16:59:00,,2706.00,1472.00,390.00,193.00,119.00,135.00,81.00,35.00,APPROVED
VA: VIRGINIA BEACH,01/08/2014 17:59:00,,2694.00,1471.00,393.00,190.00,117.00,135.00,80.00,33.00,APPROVED
VA: VIRGINIA BEACH,01/08/2014 18:59:00,,2686.00,1465.00,394.00,193.00,117.00,134.00,79.00,35.00,APPROVED
VA: VIRGINIA BEACH,01/08/2014 19:59:00,,2640.00,1437.00,388.00,188.00,118.00,138.00,81.00,34.00,APPROVED
VA: VIRGINIA BEACH,01/08/2014 20:59:00,,2589.00,1403.00,383.00,186.00,120.00,133.00,76.00,35.00,APPROVED
VA: VIRGINIA BEACH,01/08/2014 22:00:00,,2618.00,1421.00,386.00,189.00,118.00,137.00,76.00,35.00,APPROVED
VA: VIRGINIA BEACH,01/08/2014 23:00:00,,2759.00,1499.00,392.00,194.00,121.00,136.00,80.00,34.00,APPROVED
VA: VIRGINIA BEACH,01/09/2014 00:00:00,,2820.00,1535.00,400.00,195.00,122.00,141.00,80.00,34.00,APPROVED
VA: VIRGINIA BEACH,01/09/2014 01:00:00,,2831.00,1543.00,397.00,196.00,120.00,135.00,82.00,36.00,APPROVED
VA: VIRGINIA BEACH,01/09/2014 02:00:00,,2848.00,1551.00,406.00,200.00,122.00,139.00,84.00,36.00,APPROVED
VA: VIRGINIA BEACH,01/09/2014 03:01:00,,2871.00,1551.00,403.00,202.00,121.00,138.00,84.00,35.00,APPROVED
VA: VIRGINIA BEACH,01/09/2014 04:01:00,,2860.00,1564.00,403.00,198.00,122.00,138.00,85.00,35.00,APPROVED
VA: VIRGINIA BEACH,01/09/2014 05:01:00,,2868.00,1572.00,407.00,204.00,123.00,139.00,86.00,35.00,APPROVED
VA: VIRGINIA BEACH,01/09/2014 06:01:00,,2867.00,1566.00,407.00,200.00,123.00,138.00,84.00,36.00,APPROVED
VA: VIRGINIA BEACH,01/09/2014 07:01:00,,2867.00,1557.00,408.00,199.00,122.00,138.00,85.00,35.00,APPROVED
VA: VIRGINIA BEACH,01/09/2014 08:02:00,,2863.00,1575.00,410.00,202.00,124.00,140.00,84.00,36.00,APPROVED
VA: VIRGINIA BEACH,01/09/2014 09:02:00,,2873.00,1575.00,407.00,204.00,122.00,140.00,84.00,35.00,APPROVED
VA: VIRGINIA BEACH,01/09/2014 10:02:00,,2880.00,1580.00,408.00,205.00,121.00,141.00,85.00,37.00,APPROVED
VA: VIRGINIA BEACH,01/09/2014 11:02:00,,2885.00,1585.00,413.00,207.00,125.00,141.00,85.00,35.00,APPROVED
VA: VIRGINIA BEACH,01/09/2014 12:02:00,,2863.00,1581.00,414.00,207.00,125.00,140.00,85.00,35.00,APPROVED
VA: VIRGINIA BEACH,01/09/2014 13:03:00,,2869.00,1580.00,415.00,204.00,126.00,142.00,86.00,38.00,APPROVED
VA: VIRGINIA BEACH,01/09/2014 14:03:00,,2837.00,1565.00,413.00,207.00,121.00,142.00,85.00,37.00,APPROVED
VA: VIRGINIA BEACH,01/09/2014 15:03:00,,2775.00,1517.00,403.00,199.00,122.00,138.00,83.00,36.00,APPROVED
VA: VIRGINIA BEACH,01/09/2014 16:03:00,,2571.00,1409.00,385.00,192.00,118.00,138.00,77.00,35.00,APPROVED
VA: VIRGINIA BEACH,01/09/2014 17:03:00,,2461.00,1338.00,383.00,182.00,115.00,137.00,72.00,35.00,APPROVED
VA: VIRGINIA BEACH,01/09/2014 18:04:00,,2409.00,1310.00,384.00,179.00,119.00,138.00,73.00,36.00,APPROVED
VA: VIRGINIA BEACH,01/09/2014 19:04:00,,2453.00,1334.00,388.00,181.00,119.00,140.00,71.00,35.00,APPROVED
VA: VIRGINIA BEACH,01/09/2014 20:04:00,,2542.00,1383.00,382.00,183.00,119.00,140.00,76.00,34.00,APPROVED
VA: VIRGINIA BEACH,01/09/2014 21:04:00,,2612.00,1419.00,391.00,189.00,121.00,139.00,79.00,36.00,APPROVED
VA: VIRGINIA BEACH,01/09/2014 22:04:00,,2677.00,1460.00,394.00,193.00,121.00,138.00,80.00,36.00,APPROVED
VA: VIRGINIA BEACH,01/09/2014 23:05:00,,2734.00,1495.00,401.00,200.00,120.00,140.00,82.00,37.00,APPROVED
VA: VIRGINIA BEACH,01/10/2014 00:05:00,,2765.00,1525.00,402.00,199.00,124.00,139.00,80.00,36.00,APPROVED
VA: VIRGINIA BEACH,01/10/2014 01:05:00,,2798.00,1531.00,405.00,200.00,123.00,139.00,82.00,37.00,APPROVED
VA: VIRGINIA BEACH,01/10/2014 02:05:00,,2814.00,1538.00,408.00,199.00,122.00,140.00,81.00,36.00,APPROVED
VA: VIRGINIA BEACH,01/10/2014 03:05:00,,2822.00,1547.00,410.00,202.00,122.00,140.00,83.00,37.00,APPROVED
VA: VIRGINIA BEACH,01/10/2014 04:06:00,,2841.00,1572.00,407.00,206.00,125.00,145.00,85.00,35.00,APPROVED
VA: VIRGINIA BEACH,01/10/2014 05:06:00,,2862.00,1587.00,414.00,208.00,128.00,144.00,85.00,36.00,APPROVED
VA: VIRGINIA BEACH,01/10/2014 06:06:00,,2862.00,1592.00,415.00,210.00,127.00,146.00,85.00,37.00,APPROVED
VA: VIRGINIA BEACH,01/10/2014 07:06:00,,2888.00,1633.00,422.00,220.00,127.00,147.00,87.00,37.00,APPROVED
VA: VIRGINIA BEACH,01/10/2014 08:06:00,,2891.00,1630.00,427.00,219.00,131.00,152.00,89.00,37.00,APPROVED
VA: VIRGINIA BEACH,01/10/2014 09:07:00,,2860.00,1625.00,429.00,221.00,132.00,149.00,89.00,37.00,APPROVED
VA: VIRGINIA BEACH,01/10/2014 10:07:00,,2840.00,1604.00,422.00,223.00,128.00,154.00,87.00,38.00,APPROVED